Weather in Teriberka

Russia / Murmansk Oblast     69°09′52″N   35°08′32″E
temp.,
°C
wind,
m/s
gust,
m/s
humid.,
%
clouds,
%
prec.,
mm/h
press.,
hPa
HPBL,
m
8 may, sat
sat800:00+1se12168074 0.0 998858
03:000sse121680100 0.0 999717
06:00+1s111479100 0.0 1000551
09:00+1s912757 0.0 1003670
12:00+2s810715 0.0 1005845
15:00+3s796957 0.0 1006818
18:00+3ssw710695 0.0 1007739
21:00+2sse587865 0.0 1008327
9 may, sun
sun900:00+2se4586100 0.0 1008136
03:00+1ene57100100 1.3 1006256
06:00+2ese4698100 4.4 1002266
09:00+1wsw3499100 8.3 1002179
12:00+2w5695100 0.2 1003472
15:00+3nw678586 0.3 1004686
18:00+3nw238553 0.0 1005167
21:00+3ssw23815 0.0 100636
10 may, mon
mon1000:00+2sw58805 0.0 1005147
03:00+2sw610780 0.0 1006201
06:00+3sw610760 0.0 1006234
09:00+4sw812750 0.0 1006311
12:00+6wsw912635 0.0 1007340
15:00+6wsw9125898 0.2 1009431
18:00+6wnw696538 0.3 1011332
21:00+5s227227 0.4 101229
11 may, tue
tue1100:00+4sw56725 0.0 101367
03:00+4w34784 0.0 101443
06:00+4wnw227746 0.0 101523
09:00+4e1176100 0.0 101687
12:00+5e3474100 0.0 1016215
15:00+6se5779100 0.0 1014131
18:00+5sse4488100 0.3 101384
21:00+5s3593100 2.4 1011107
12 may, wed
wed1200:00+6wsw5791100 0.1 101193
03:00+5w6995100 0.4 1013203
06:00+4wnw7995100 0.1 1015262
09:00+4nw5696100 0.2 1017189
12:00+4nnw3395100 0.0 1020163
15:00+3nne2295100 0.1 1021118
18:00+3nne3393100 0.0 1024190
21:00+3nne3397100 0.1 1026386